User: anonymous   Login
Location: Windsor
(43.2292°N, 89.3015°W)
Time: 12:10:03
(UTC+00:00)
Language:

ZACube-1 - Orbit

View from above orbital plane
View from above orbital plane
View from above satellite
View from above satellite

Ground track
Ground track

The orbit data is extracted from the following two-line orbital elements,

1 39417U 13066B   22179.16753938  .00001298  00000-0  16397-3 0  9992
2 39417  97.6367 150.1805 0058171  11.2149 349.0346 14.82378780464713
Epoch (UTC): 28 June 2022 04:01:15
Eccentricity: 0.0058171
inclination: 97.6367°
perigee height: 581 km
apogee height: 662 km
right ascension of ascending node: 150.1805°
argument of perigee: 11.2149°
revolutions per day: 14.82378780
mean anomaly at epoch: 349.0346°
orbit number at epoch: 46471

The dashed part of the orbit path shows where the satellite is in the earth's shadow,  

DLR